When you browse on this site, cookies collect data to enhance your experience and personalize the content and advertising you see.
Visit our Privacy Policy to learn more. By continuing to use the site, you agree to this use of cookies and data.
  • en France
  • Liste des pays
  • À 7 jours
  • Température de l'eau
  • Carte satellitaire
  • Carte météo
  • Widgets météo
  • user-avatar
    Se connecter

    Météo par heure à Xiancun

    Ce jour, 18 Juillet, Jeudi

    Heure Température Précipitation Vent Pression Humidité
    00:00 +26°C° 0 mm 1 m/s 731 mmHg 96%
    01:00 +26°C° 0 mm 1 m/s 731 mmHg 96%
    02:00 +26°C° 0 mm 1 m/s 731 mmHg 96%
    03:00 +25°C° 0 mm 1 m/s 730 mmHg 96%
    04:00 +25°C° 0 mm 1 m/s 730 mmHg 96%
    05:00 +25°C° 0 mm 1 m/s 730 mmHg 96%
    06:00 +27°C° 0 mm 1 m/s 730 mmHg 91%
    07:00 +28°C° 0 mm 1 m/s 730 mmHg 87%
    08:00 +29°C° 0 mm 1 m/s 730 mmHg 84%
    09:00 +31°C° 0 mm 1 m/s 730 mmHg 76%
    10:00 +34°C° 0 mm 2 m/s 730 mmHg 68%
    11:00 +36°C° 0 mm 2 m/s 730 mmHg 61%
    12:00 +36°C° 0.1 mm 2 m/s 729 mmHg 60%
    13:00 +36°C° 0.1 mm 2 m/s 728 mmHg 59%
    14:00 +36°C° 0 mm 3 m/s 728 mmHg 57%
    15:00 +35°C° 0.8 mm 2 m/s 728 mmHg 67%
    16:00 +33°C° 0.8 mm 1 m/s 728 mmHg 76%
    17:00 +32°C° 0.8 mm 1 m/s 728 mmHg 86%
    18:00 +31°C° 0.3 mm 1 m/s 728 mmHg 89%
    19:00 +27°C° 0.3 mm 0 m/s 728 mmHg 91%
    20:00 +26°C° 0.3 mm 0 m/s 728 mmHg 94%
    21:00 +28°C° 0 mm 1 m/s 728 mmHg 94%
    22:00 +27°C° 0 mm 1 m/s 729 mmHg 94%
    23:00 +27°C° 0 mm 1 m/s 729 mmHg 94%

    Demain, 19 Juillet, Vendredi

    Heure Température Précipitation Vent Pression Humidité
    00:00 +27°C° 0 mm 1 m/s 728 mmHg 95%
    01:00 +27°C° 0 mm 1 m/s 728 mmHg 95%
    02:00 +27°C° 0 mm 1 m/s 727 mmHg 95%
    03:00 +26°C° 0 mm 1 m/s 728 mmHg 95%
    04:00 +26°C° 0 mm 1 m/s 728 mmHg 95%
    05:00 +26°C° 0 mm 1 m/s 728 mmHg 95%
    06:00 +28°C° 0 mm 1 m/s 728 mmHg 92%
    07:00 +29°C° 0 mm 1 m/s 729 mmHg 88%
    08:00 +31°C° 0 mm 1 m/s 729 mmHg 85%
    09:00 +32°C° 0 mm 1 m/s 729 mmHg 74%
    10:00 +34°C° 0 mm 1 m/s 729 mmHg 64%
    11:00 +37°C° 0 mm 2 m/s 730 mmHg 53%
    12:00 +37°C° 0 mm 2 m/s 729 mmHg 54%
    13:00 +36°C° 0 mm 1 m/s 729 mmHg 54%
    14:00 +37°C° 0 mm 1 m/s 729 mmHg 54%
    15:00 +35°C° 0.5 mm 1 m/s 728 mmHg 62%
    16:00 +34°C° 0.5 mm 1 m/s 728 mmHg 70%
    17:00 +33°C° 0.5 mm 1 m/s 728 mmHg 77%
    18:00 +32°C° 0.5 mm 1 m/s 729 mmHg 82%
    19:00 +30°C° 0.5 mm 1 m/s 730 mmHg 87%
    20:00 +26°C° 0.5 mm 0 m/s 730 mmHg 92%
    21:00 +26°C° 0 mm 0 m/s 730 mmHg 92%
    22:00 +26°C° 0 mm 0 m/s 731 mmHg 92%
    23:00 +26°C° 0 mm 0 m/s 731 mmHg 92%

    Après-demain, 20 Juillet, Samedi

    Heure Température Précipitation Vent Pression Humidité
    00:00 +26°C° 0 mm 0 m/s 731 mmHg 92%
    01:00 +27°C° 0 mm 1 m/s 730 mmHg 92%
    02:00 +27°C° 0 mm 1 m/s 730 mmHg 92%
    03:00 +27°C° 0.2 mm 1 m/s 730 mmHg 92%
    04:00 +27°C° 0.2 mm 1 m/s 730 mmHg 92%
    05:00 +27°C° 0.2 mm 1 m/s 731 mmHg 92%
    06:00 +27°C° 0.2 mm 0 m/s 731 mmHg 89%
    07:00 +28°C° 0.2 mm 0 m/s 732 mmHg 85%
    08:00 +30°C° 0.2 mm 0 m/s 732 mmHg 82%
    09:00 +31°C° 0.4 mm 0 m/s 732 mmHg 75%
    10:00 +35°C° 0.4 mm 1 m/s 732 mmHg 68%
    11:00 +36°C° 0.4 mm 1 m/s 732 mmHg 62%
    12:00 +36°C° 2.1 mm 1 m/s 732 mmHg 68%
    13:00 +35°C° 2.1 mm 1 m/s 731 mmHg 73%
    14:00 +34°C° 2.1 mm 1 m/s 731 mmHg 79%
    15:00 +33°C° 2.2 mm 1 m/s 731 mmHg 83%
    16:00 +33°C° 2.2 mm 1 m/s 730 mmHg 86%
    17:00 +32°C° 2.2 mm 1 m/s 730 mmHg 90%
    18:00 +29°C° 1.1 mm 0 m/s 731 mmHg 91%
    19:00 +28°C° 1.1 mm 0 m/s 731 mmHg 93%
    20:00 +27°C° 1.1 mm 0 m/s 732 mmHg 94%
    21:00 +26°C° 0.3 mm 0 m/s 732 mmHg 94%
    22:00 +26°C° 0.3 mm 0 m/s 732 mmHg 95%
    23:00 +26°C° 0.3 mm 0 m/s 732 mmHg 95%

    21 Juillet, Dimanche

    Heure Température Précipitation Vent Pression Humidité
    00:00 +26°C° 0.1 mm 0 m/s 732 mmHg 95%
    01:00 +25°C° 0.1 mm 0 m/s 732 mmHg 95%
    02:00 +27°C° 0.1 mm 1 m/s 731 mmHg 95%
    03:00 +25°C° 0.2 mm 0 m/s 731 mmHg 95%
    04:00 +25°C° 0.2 mm 0 m/s 732 mmHg 95%
    05:00 +25°C° 0.2 mm 0 m/s 732 mmHg 95%
    06:00 +26°C° 0 mm 0 m/s 732 mmHg 93%
    07:00 +27°C° 0 mm 0 m/s 732 mmHg 90%
    08:00 +29°C° 0 mm 0 m/s 733 mmHg 87%
    09:00 +32°C° 1.2 mm 1 m/s 733 mmHg 84%
    10:00 +33°C° 1.2 mm 1 m/s 732 mmHg 80%
    11:00 +34°C° 1.2 mm 1 m/s 732 mmHg 76%
    12:00 +34°C° 3.5 mm 1 m/s 732 mmHg 78%
    13:00 +34°C° 3.5 mm 1 m/s 731 mmHg 79%
    14:00 +34°C° 3.5 mm 1 m/s 731 mmHg 81%
    15:00 +33°C° 2.3 mm 1 m/s 731 mmHg 84%
    16:00 +33°C° 2.3 mm 1 m/s 731 mmHg 86%
    17:00 +32°C° 2.3 mm 1 m/s 730 mmHg 89%
    18:00 +31°C° 0.7 mm 1 m/s 731 mmHg 90%
    19:00 +28°C° 0.7 mm 0 m/s 731 mmHg 92%
    20:00 +27°C° 0.7 mm 0 m/s 732 mmHg 93%
    21:00 +29°C° 0.6 mm 1 m/s 732 mmHg 93%
    22:00 +28°C° 0.6 mm 1 m/s 732 mmHg 93%
    23:00 +28°C° 0.6 mm 1 m/s 732 mmHg 94%

    22 Juillet, Lundi

    Heure Température Précipitation Vent Pression Humidité
    00:00 +28°C° 0 mm 1 m/s 732 mmHg 94%
    01:00 +28°C° 0 mm 1 m/s 732 mmHg 93%
    02:00 +25°C° 0 mm 0 m/s 732 mmHg 93%
    03:00 +25°C° 0 mm 0 m/s 732 mmHg 94%
    04:00 +25°C° 0 mm 0 m/s 732 mmHg 94%
    05:00 +25°C° 0 mm 0 m/s 732 mmHg 94%
    06:00 +26°C° 0.1 mm 0 m/s 732 mmHg 91%
    07:00 +28°C° 0.1 mm 0 m/s 732 mmHg 88%
    08:00 +29°C° 0.1 mm 0 m/s 733 mmHg 85%
    09:00 +32°C° 1.3 mm 1 m/s 733 mmHg 83%
    10:00 +32°C° 1.3 mm 1 m/s 733 mmHg 81%
    11:00 +33°C° 1.3 mm 1 m/s 732 mmHg 79%
    12:00 +33°C° 3 mm 1 m/s 732 mmHg 80%
    13:00 +33°C° 3 mm 1 m/s 732 mmHg 81%
    14:00 +33°C° 3 mm 1 m/s 731 mmHg 82%
    15:00 +33°C° 2 mm 1 m/s 731 mmHg 84%
    16:00 +32°C° 2 mm 1 m/s 731 mmHg 86%
    17:00 +32°C° 2 mm 1 m/s 731 mmHg 89%
    18:00 +31°C° 0.8 mm 1 m/s 731 mmHg 91%
    19:00 +29°C° 0.8 mm 1 m/s 732 mmHg 94%
    20:00 +26°C° 0.8 mm 0 m/s 732 mmHg 96%
    21:00 +26°C° 0.2 mm 0 m/s 732 mmHg 96%
    22:00 +26°C° 0.2 mm 0 m/s 732 mmHg 96%
    23:00 +25°C° 0.2 mm 0 m/s 733 mmHg 96%

    23 Juillet, Mardi

    Heure Température Précipitation Vent Pression Humidité
    00:00 +25°C° 0 mm 0 m/s 732 mmHg 96%
    01:00 +25°C° 0 mm 0 m/s 732 mmHg 96%
    02:00 +25°C° 0 mm 0 m/s 732 mmHg 96%
    03:00 +25°C° 0 mm 0 m/s 732 mmHg 96%
    04:00 +25°C° 0 mm 0 m/s 732 mmHg 96%
    05:00 +25°C° 0 mm 0 m/s 732 mmHg 96%
    06:00 +26°C° 0 mm 0 m/s 732 mmHg 94%
    07:00 +29°C° 0 mm 1 m/s 733 mmHg 91%
    08:00 +30°C° 0 mm 1 m/s 733 mmHg 88%
    09:00 +32°C° 0.1 mm 1 m/s 733 mmHg 79%
    10:00 +33°C° 0.1 mm 1 m/s 733 mmHg 70%
    11:00 +36°C° 0.1 mm 2 m/s 733 mmHg 60%
    12:00 +36°C° 0.7 mm 2 m/s 732 mmHg 63%
    13:00 +36°C° 0.7 mm 2 m/s 732 mmHg 65%
    14:00 +36°C° 0.7 mm 2 m/s 732 mmHg 68%
    15:00 +34°C° 1 mm 1 m/s 731 mmHg 74%
    16:00 +33°C° 1 mm 1 m/s 731 mmHg 81%
    17:00 +32°C° 1 mm 1 m/s 731 mmHg 88%
    18:00 +31°C° 0.1 mm 1 m/s 732 mmHg 90%
    19:00 +27°C° 0.1 mm 0 m/s 732 mmHg 93%
    20:00 +26°C° 0.1 mm 0 m/s 732 mmHg 95%
    21:00 +26°C° 0 mm 0 m/s 732 mmHg 95%
    22:00 +26°C° 0 mm 0 m/s 733 mmHg 95%
    23:00 +27°C° 0 mm 1 m/s 733 mmHg 94%
    Voir plus